AIC4217 OMDB-VABB

Flight info

Callsign AIC4217
Flight time 2h 33m
Altitude 41000
Route IVURO DCT LALDO B505 NADSO A777 VAXIM L301 KARKU DCT EXOLU POKON2A
Aircraft B788/H-SDE1E2E3FGHIJ2J3J4J5M1RWXY/LB1D1

Departure

Time 2026-04-20 16:19
Airport Dubai International Airport (OMDB)

Arrival

Time 2026-04-20 18:53
Airport Chhatrapati Shivaji Maharaj International Airport (VABB)
Time Latitude Longitude Altitude Speed Heading
2026-04-20 15:32 25.25322 55.35497 19 ft 0 kts 212°
2026-04-20 15:55 25.25324 55.35499 18 ft 2 kts 212°
2026-04-20 15:56 25.25338 55.35508 20 ft 2 kts 211°
2026-04-20 15:56 25.25352 55.35517 20 ft 2 kts 209°
2026-04-20 15:56 25.25367 55.35525 22 ft 2 kts 206°
2026-04-20 15:56 25.25382 55.35533 22 ft 2 kts 201°
2026-04-20 15:57 25.25398 55.35537 20 ft 2 kts 185°
2026-04-20 15:57 25.25413 55.35531 22 ft 2 kts 141°
2026-04-20 15:57 25.25418 55.35524 20 ft 0 kts 128°
2026-04-20 16:00 25.25404 55.35548 17 ft 8 kts 122°
2026-04-20 16:00 25.25392 55.35570 18 ft 0 kts 121°
2026-04-20 16:02 25.25372 55.35606 19 ft 10 kts 121°
2026-04-20 16:02 25.25322 55.35694 19 ft 16 kts 121°
2026-04-20 16:03 25.25281 55.35769 19 ft 17 kts 121°
2026-04-20 16:03 25.25193 55.35930 23 ft 19 kts 121°
2026-04-20 16:03 25.25120 55.36062 26 ft 21 kts 121°
2026-04-20 16:03 25.25044 55.36200 29 ft 22 kts 121°
2026-04-20 16:04 25.24964 55.36346 28 ft 23 kts 121°
2026-04-20 16:04 25.24883 55.36490 30 ft 24 kts 122°
2026-04-20 16:04 25.24804 55.36652 32 ft 24 kts 112°
2026-04-20 16:04 25.24758 55.36836 34 ft 25 kts 108°
2026-04-20 16:05 25.24756 55.37021 37 ft 23 kts 108°
2026-04-20 16:05 25.24675 55.37170 39 ft 23 kts 122°
2026-04-20 16:05 25.24620 55.37266 40 ft 22 kts 122°
2026-04-20 16:05 25.24541 55.37408 42 ft 21 kts 120°
2026-04-20 16:06 25.24468 55.37544 43 ft 20 kts 121°
2026-04-20 16:06 25.24397 55.37673 45 ft 19 kts 122°
2026-04-20 16:06 25.24330 55.37794 48 ft 18 kts 121°
2026-04-20 16:06 25.24267 55.37908 49 ft 17 kts 122°
2026-04-20 16:07 25.24205 55.38018 49 ft 17 kts 122°
2026-04-20 16:07 25.24143 55.38128 47 ft 17 kts 122°
2026-04-20 16:07 25.24080 55.38239 51 ft 17 kts 122°
2026-04-20 16:07 25.24018 55.38349 53 ft 16 kts 122°
2026-04-20 16:08 25.23961 55.38455 54 ft 16 kts 119°
2026-04-20 16:08 25.23908 55.38558 53 ft 15 kts 121°
2026-04-20 16:08 25.23854 55.38651 55 ft 14 kts 122°
2026-04-20 16:08 25.23804 55.38740 56 ft 13 kts 122°
2026-04-20 16:09 25.23755 55.38827 56 ft 13 kts 122°
2026-04-20 16:09 25.23709 55.38909 60 ft 12 kts 121°
2026-04-20 16:09 25.23667 55.38986 63 ft 11 kts 121°
2026-04-20 16:09 25.23627 55.39060 64 ft 11 kts 121°
2026-04-20 16:10 25.23589 55.39131 62 ft 11 kts 121°
2026-04-20 16:10 25.23551 55.39200 60 ft 10 kts 122°
2026-04-20 16:10 25.23514 55.39265 66 ft 10 kts 122°
2026-04-20 16:10 25.23476 55.39333 65 ft 11 kts 122°
2026-04-20 16:11 25.23434 55.39408 66 ft 12 kts 121°
2026-04-20 16:11 25.23410 55.39482 71 ft 4 kts 75°
2026-04-20 16:11 25.23431 55.39513 70 ft 4 kts 41°
2026-04-20 16:17 25.23435 55.39517 71 ft 1 kts 40°
2026-04-20 16:17 25.23441 55.39521 68 ft 6 kts 36°
2026-04-20 16:17 25.23506 55.39566 83 ft 17 kts 21°
2026-04-20 16:18 25.23533 55.39573 84 ft 0 kts 343°
2026-04-20 16:18 25.23540 55.39566 86 ft 4 kts 313°
2026-04-20 16:18 25.23567 55.39522 87 ft 13 kts 303°
2026-04-20 16:18 25.23661 55.39363 82 ft 37 kts 303°
2026-04-20 16:19 25.23870 55.38992 69 ft 83 kts 302°
2026-04-20 16:19 25.24269 55.38270 58 ft 135 kts 301°
2026-04-20 16:19 25.24839 55.37252 127 ft 173 kts 299°
2026-04-20 16:19 25.25436 55.36189 1036 ft 154 kts 301°
2026-04-20 16:20 25.26077 55.35135 1563 ft 176 kts 305°
2026-04-20 16:20 25.26832 55.33925 2074 ft 207 kts 305°
2026-04-20 16:20 25.27685 55.32531 2761 ft 231 kts 305°
2026-04-20 16:20 25.28591 55.31049 3993 ft 230 kts 307°
2026-04-20 16:21 25.29789 55.29903 5105 ft 231 kts 335°
2026-04-20 16:21 25.31324 55.29521 6261 ft 232 kts
2026-04-20 16:21 25.32956 55.29577 7288 ft 237 kts
2026-04-20 16:21 25.34635 55.29594 8348 ft 241 kts 360°
2026-04-20 16:22 25.36326 55.29628 9396 ft 245 kts
2026-04-20 16:22 25.38043 55.29676 10391 ft 248 kts
2026-04-20 16:22 25.39693 55.30154 11355 ft 254 kts 26°
2026-04-20 16:22 25.41106 55.31453 11906 ft 282 kts 49°
2026-04-20 16:23 25.42375 55.33252 12305 ft 310 kts 48°
2026-04-20 16:23 25.43800 55.35177 12685 ft 337 kts 47°
2026-04-20 16:23 25.45346 55.37263 13017 ft 364 kts 48°
2026-04-20 16:23 25.46995 55.39521 13373 ft 387 kts 49°
2026-04-20 16:24 25.48674 55.41862 14278 ft 390 kts 51°
2026-04-20 16:24 25.50268 55.44338 15029 ft 400 kts 57°
2026-04-20 16:24 25.51334 55.47211 15843 ft 410 kts 74°
2026-04-20 16:24 25.51665 55.50374 16631 ft 419 kts 91°
2026-04-20 16:25 25.51189 55.53572 17417 ft 426 kts 107°
2026-04-20 16:25 25.49934 55.56556 18187 ft 432 kts 121°
2026-04-20 16:25 25.48344 55.59399 18825 ft 437 kts 122°
2026-04-20 16:25 25.46676 55.62235 19482 ft 442 kts 123°
2026-04-20 16:26 25.45010 55.65115 20124 ft 447 kts 122°
2026-04-20 16:26 25.43385 55.68061 20744 ft 451 kts 118°
2026-04-20 16:26 25.42220 55.71297 21351 ft 456 kts 104°
2026-04-20 16:26 25.41473 55.74724 21909 ft 461 kts 102°
2026-04-20 16:27 25.40752 55.78196 22505 ft 466 kts 102°
2026-04-20 16:27 25.40014 55.81705 23068 ft 470 kts 103°
2026-04-20 16:27 25.39251 55.85242 23574 ft 475 kts 103°
2026-04-20 16:27 25.38483 55.88803 24088 ft 478 kts 103°
2026-04-20 16:28 25.37720 55.92391 24595 ft 480 kts 103°
2026-04-20 16:28 25.36953 55.95993 25105 ft 483 kts 103°
2026-04-20 16:28 25.36176 55.99613 25594 ft 485 kts 103°
2026-04-20 16:28 25.35393 56.03251 26058 ft 488 kts 103°
2026-04-20 16:29 25.34607 56.06915 26541 ft 490 kts 103°
2026-04-20 16:29 25.33818 56.10589 27008 ft 493 kts 103°
2026-04-20 16:29 25.33029 56.14286 27439 ft 495 kts 101°
2026-04-20 16:29 25.32613 56.18001 27855 ft 497 kts 93°
2026-04-20 16:30 25.32398 56.21818 28268 ft 499 kts 92°
2026-04-20 16:30 25.32199 56.25658 28683 ft 501 kts 92°
2026-04-20 16:30 25.31977 56.29503 29074 ft 504 kts 93°
2026-04-20 16:30 25.31743 56.33318 29445 ft 506 kts 93°
2026-04-20 16:31 25.31512 56.37211 29833 ft 508 kts 92°
2026-04-20 16:31 25.31290 56.41119 30142 ft 511 kts 92°
2026-04-20 16:31 25.31062 56.45045 30409 ft 513 kts 92°
2026-04-20 16:31 25.30825 56.48985 30686 ft 516 kts 92°
2026-04-20 16:32 25.30596 56.52790 30975 ft 517 kts 92°
2026-04-20 16:32 25.30358 56.56745 31377 ft 516 kts 94°
2026-04-20 16:32 25.29748 56.60650 31776 ft 517 kts 105°
2026-04-20 16:32 25.28517 56.64380 32115 ft 518 kts 111°
2026-04-20 16:33 25.27132 56.68056 32460 ft 518 kts 111°
2026-04-20 16:33 25.25732 56.71716 32835 ft 518 kts 111°
2026-04-20 16:33 25.24339 56.75378 33209 ft 517 kts 111°
2026-04-20 16:33 25.22955 56.79047 33581 ft 517 kts 111°
2026-04-20 16:34 25.21571 56.82704 33935 ft 516 kts 111°
2026-04-20 16:34 25.20176 56.86363 34218 ft 517 kts 111°
2026-04-20 16:34 25.18781 56.90024 34491 ft 518 kts 111°
2026-04-20 16:34 25.17386 56.93693 34745 ft 519 kts 111°
2026-04-20 16:35 25.15986 56.97372 35005 ft 520 kts 111°
2026-04-20 16:35 25.14585 57.01045 35266 ft 520 kts 111°
2026-04-20 16:35 25.13177 57.04729 35525 ft 521 kts 111°
2026-04-20 16:35 25.11768 57.08418 35783 ft 522 kts 111°
2026-04-20 16:36 25.10357 57.12113 36046 ft 523 kts 111°
2026-04-20 16:36 25.08943 57.15807 36295 ft 523 kts 111°
2026-04-20 16:36 25.07525 57.19507 36551 ft 524 kts 110°
2026-04-20 16:36 25.06103 57.23216 36799 ft 525 kts 110°
2026-04-20 16:37 25.04683 57.26919 37061 ft 525 kts 110°
2026-04-20 16:37 25.03256 57.30634 37309 ft 526 kts 110°
2026-04-20 16:37 25.01830 57.34344 37565 ft 526 kts 110°
2026-04-20 16:37 25.00402 57.38055 37813 ft 527 kts 110°
2026-04-20 16:38 24.98988 57.41729 38082 ft 527 kts 110°
2026-04-20 16:38 24.97557 57.45441 38310 ft 527 kts 110°
2026-04-20 16:38 24.96123 57.49159 38545 ft 528 kts 110°
2026-04-20 16:38 24.94685 57.52885 38760 ft 528 kts 110°
2026-04-20 16:39 24.93249 57.56600 39003 ft 527 kts 110°
2026-04-20 16:39 24.91812 57.60315 39228 ft 526 kts 110°
2026-04-20 16:39 24.90378 57.64022 39465 ft 526 kts 110°
2026-04-20 16:39 24.88944 57.67722 39685 ft 525 kts 110°
2026-04-20 16:40 24.87511 57.71419 39905 ft 525 kts 110°
2026-04-20 16:40 24.86073 57.75123 40119 ft 525 kts 110°
2026-04-20 16:40 24.84640 57.78814 40336 ft 525 kts 110°
2026-04-20 16:40 24.83196 57.82504 40550 ft 525 kts 113°
2026-04-20 16:41 24.81600 57.86118 40758 ft 525 kts 113°
2026-04-20 16:41 24.80034 57.89743 40840 ft 527 kts 113°
2026-04-20 16:41 24.76875 57.97031 40839 ft 526 kts 114°
2026-04-20 16:42 24.73702 58.04250 40834 ft 522 kts 113°
2026-04-20 16:42 24.70568 58.11438 40840 ft 520 kts 114°
2026-04-20 16:43 24.67419 58.18600 40837 ft 520 kts 114°
2026-04-20 16:43 24.64280 58.25760 40843 ft 520 kts 114°
2026-04-20 16:44 24.61131 58.32912 40846 ft 520 kts 114°
2026-04-20 16:44 24.57978 58.40072 40845 ft 520 kts 114°
2026-04-20 16:45 24.54845 58.47170 40848 ft 519 kts 114°
2026-04-20 16:45 24.51674 58.54346 40847 ft 518 kts 114°
2026-04-20 16:46 24.48548 58.61408 40848 ft 517 kts 114°
2026-04-20 16:46 24.45400 58.68508 40847 ft 517 kts 114°
2026-04-20 16:47 24.42251 58.75601 40851 ft 517 kts 114°
2026-04-20 16:47 24.39107 58.82677 40854 ft 515 kts 114°
2026-04-20 16:48 24.35965 58.89741 40857 ft 514 kts 114°
2026-04-20 16:48 24.32829 58.96777 40855 ft 513 kts 114°
2026-04-20 16:49 24.29693 59.03805 40764 ft 512 kts 114°
2026-04-20 16:49 24.26555 59.10829 40850 ft 517 kts 114°
2026-04-20 16:50 24.23377 59.17925 40857 ft 518 kts 114°
2026-04-20 16:50 24.20205 59.25001 40861 ft 516 kts 114°
2026-04-20 16:51 24.17576 59.30858 40863 ft 515 kts 114°
2026-04-20 16:51 24.14415 59.37888 40864 ft 514 kts 114°
2026-04-20 16:52 24.11257 59.44904 40864 ft 513 kts 114°
2026-04-20 16:52 24.08097 59.51910 40860 ft 513 kts 114°
2026-04-20 16:53 24.04935 59.58914 40861 ft 513 kts 114°
2026-04-20 16:53 24.01777 59.65896 40865 ft 512 kts 115°
2026-04-20 16:54 23.98618 59.72872 40864 ft 511 kts 115°
2026-04-20 16:54 23.95462 59.79831 40861 ft 510 kts 115°
2026-04-20 16:55 23.92309 59.86771 40862 ft 510 kts 115°
2026-04-20 16:55 23.89154 59.93705 40864 ft 509 kts 115°
2026-04-20 16:56 23.85998 60.00633 40862 ft 509 kts 115°
2026-04-20 16:56 23.82860 60.07511 40865 ft 509 kts 115°
2026-04-20 16:57 23.79699 60.14429 40862 ft 509 kts 116°
2026-04-20 16:57 23.76538 60.21337 40865 ft 508 kts 116°
2026-04-20 16:58 23.73381 60.28225 40863 ft 507 kts 116°
2026-04-20 16:58 23.70225 60.35102 40870 ft 507 kts 116°
2026-04-20 16:59 23.67063 60.41983 40871 ft 507 kts 116°
2026-04-20 16:59 23.63898 60.48860 40871 ft 508 kts 116°
2026-04-20 17:00 23.59137 60.59184 40872 ft 508 kts 116°
2026-04-20 17:01 23.55961 60.66061 40879 ft 508 kts 116°
2026-04-20 17:01 23.52776 60.72946 40876 ft 508 kts 116°
2026-04-20 17:02 23.49594 60.79814 40875 ft 508 kts 116°
2026-04-20 17:02 23.46409 60.86681 40877 ft 508 kts 116°
2026-04-20 17:03 23.43221 60.93542 40875 ft 508 kts 116°
2026-04-20 17:03 23.40027 61.00408 40871 ft 510 kts 116°
2026-04-20 17:04 23.36816 61.07300 40874 ft 511 kts 116°
2026-04-20 17:04 23.33597 61.14200 40883 ft 511 kts 116°
2026-04-20 17:04 23.32175 61.17730 40902 ft 508 kts 105°
2026-04-20 17:05 23.31400 61.21463 40900 ft 506 kts 94°
2026-04-20 17:05 23.30718 61.29087 40881 ft 506 kts 93°
2026-04-20 17:06 23.30049 61.36700 40881 ft 506 kts 94°
2026-04-20 17:06 23.29367 61.44305 40878 ft 504 kts 93°
2026-04-20 17:07 23.28693 61.51878 40882 ft 503 kts 93°
2026-04-20 17:07 23.28010 61.59438 40882 ft 502 kts 93°
2026-04-20 17:08 23.27333 61.66939 40887 ft 502 kts 93°
2026-04-20 17:08 23.26644 61.74490 40878 ft 501 kts 93°
2026-04-20 17:09 23.25956 61.82031 40881 ft 501 kts 93°
2026-04-20 17:09 23.25263 61.89555 40888 ft 500 kts 93°
2026-04-20 17:10 23.24568 61.97072 40875 ft 500 kts 93°
2026-04-20 17:10 23.23869 62.04599 40879 ft 501 kts 93°
2026-04-20 17:11 23.23165 62.12135 40883 ft 502 kts 93°
2026-04-20 17:11 23.22455 62.19690 40878 ft 502 kts 93°
2026-04-20 17:12 23.21744 62.27227 40876 ft 501 kts 93°
2026-04-20 17:12 23.21030 62.34749 40876 ft 500 kts 93°
2026-04-20 17:13 23.20313 62.42270 40877 ft 500 kts 94°
2026-04-20 17:13 23.19592 62.49790 40883 ft 500 kts 94°
2026-04-20 17:14 23.18867 62.57319 40878 ft 500 kts 94°
2026-04-20 17:14 23.18139 62.64829 40883 ft 499 kts 94°
2026-04-20 17:15 23.17410 62.72328 40879 ft 498 kts 94°
2026-04-20 17:15 23.16678 62.79805 40873 ft 498 kts 94°
2026-04-20 17:16 23.15943 62.87287 40881 ft 498 kts 94°
2026-04-20 17:16 23.15205 62.94762 40880 ft 497 kts 94°
2026-04-20 17:17 23.14464 63.02223 40881 ft 497 kts 94°
2026-04-20 17:17 23.13726 63.09627 40876 ft 496 kts 94°
2026-04-20 17:18 23.12980 63.17075 40877 ft 496 kts 94°
2026-04-20 17:18 23.12231 63.24514 40877 ft 495 kts 94°
2026-04-20 17:19 23.11474 63.31997 40883 ft 495 kts 94°
2026-04-20 17:19 23.10724 63.39373 40884 ft 495 kts 94°
2026-04-20 17:20 23.09964 63.46813 40884 ft 495 kts 94°
2026-04-20 17:20 23.09202 63.54239 40882 ft 495 kts 94°
2026-04-20 17:21 23.08436 63.61667 40886 ft 495 kts 94°
2026-04-20 17:21 23.07668 63.69088 40886 ft 494 kts 94°
2026-04-20 17:22 23.06897 63.76495 40885 ft 493 kts 94°
2026-04-20 17:22 23.06122 63.83903 40884 ft 493 kts 95°
2026-04-20 17:22 23.05433 63.87551 40915 ft 496 kts 107°
2026-04-20 17:23 23.04193 63.91057 40883 ft 498 kts 110°
2026-04-20 17:23 23.01563 63.98009 40889 ft 498 kts 110°
2026-04-20 17:24 22.98952 64.04957 40892 ft 497 kts 110°
2026-04-20 17:24 22.96335 64.11884 40893 ft 496 kts 110°
2026-04-20 17:25 22.93724 64.18796 40890 ft 495 kts 110°
2026-04-20 17:25 22.91112 64.25695 40893 ft 494 kts 111°
2026-04-20 17:26 22.88498 64.32590 40891 ft 494 kts 111°
2026-04-20 17:26 22.85884 64.39474 40891 ft 494 kts 111°
2026-04-20 17:27 22.83283 64.46314 40893 ft 494 kts 111°
2026-04-20 17:27 22.80661 64.53199 40894 ft 494 kts 111°
2026-04-20 17:28 22.78036 64.60081 40896 ft 494 kts 111°
2026-04-20 17:28 22.75414 64.66947 40897 ft 493 kts 111°
2026-04-20 17:29 22.72792 64.73799 40892 ft 492 kts 111°
2026-04-20 17:29 22.70169 64.80646 40895 ft 492 kts 111°
2026-04-20 17:30 22.67545 64.87483 40896 ft 492 kts 111°
2026-04-20 17:30 22.64917 64.94323 40897 ft 491 kts 111°
2026-04-20 17:31 22.62292 65.01144 40904 ft 491 kts 111°
2026-04-20 17:31 22.59661 65.07971 40900 ft 491 kts 111°
2026-04-20 17:32 22.57026 65.14796 40899 ft 492 kts 111°
2026-04-20 17:32 22.54387 65.21624 40902 ft 492 kts 111°
2026-04-20 17:33 22.51746 65.28445 40902 ft 492 kts 111°
2026-04-20 17:33 22.49102 65.35266 40906 ft 492 kts 111°
2026-04-20 17:34 22.46452 65.42092 40904 ft 493 kts 111°
2026-04-20 17:34 22.43794 65.48926 40901 ft 493 kts 111°
2026-04-20 17:35 22.41134 65.55759 40903 ft 493 kts 111°
2026-04-20 17:35 22.38470 65.62589 40906 ft 494 kts 111°
2026-04-20 17:36 22.35794 65.69440 40905 ft 495 kts 111°
2026-04-20 17:36 22.33118 65.76282 40904 ft 494 kts 111°
2026-04-20 17:37 22.30442 65.83115 40904 ft 494 kts 111°
2026-04-20 17:37 22.27759 65.89955 40903 ft 494 kts 111°
2026-04-20 17:38 22.25529 65.95631 40904 ft 494 kts 111°
2026-04-20 17:38 22.22392 66.03607 40905 ft 493 kts 112°
2026-04-20 17:39 22.20164 66.09265 40905 ft 493 kts 112°
2026-04-20 17:39 22.17024 66.17222 40904 ft 493 kts 112°
2026-04-20 17:40 22.14792 66.22874 40905 ft 493 kts 112°
2026-04-20 17:40 22.11662 66.30786 40907 ft 494 kts 112°
2026-04-20 17:41 22.09403 66.36486 40907 ft 494 kts 112°
2026-04-20 17:41 22.06704 66.43290 40908 ft 494 kts 112°
2026-04-20 17:42 22.04003 66.50091 40910 ft 493 kts 112°
2026-04-20 17:42 22.01304 66.56875 40907 ft 492 kts 112°
2026-04-20 17:43 21.98600 66.63661 40909 ft 493 kts 112°
2026-04-20 17:43 21.95910 66.70406 40911 ft 493 kts 112°
2026-04-20 17:44 21.93201 66.77188 40910 ft 493 kts 112°
2026-04-20 17:44 21.90490 66.83962 40910 ft 493 kts 112°
2026-04-20 17:45 21.87775 66.90739 40907 ft 494 kts 112°
2026-04-20 17:45 21.85048 66.97537 40909 ft 494 kts 112°
2026-04-20 17:46 21.82319 67.04328 40908 ft 494 kts 112°
2026-04-20 17:46 21.79588 67.11117 40910 ft 495 kts 112°
2026-04-20 17:47 21.76848 67.17920 40905 ft 495 kts 112°
2026-04-20 17:47 21.74108 67.24711 40906 ft 495 kts 112°
2026-04-20 17:48 21.71365 67.31501 40904 ft 494 kts 112°
2026-04-20 17:48 21.68625 67.38272 40906 ft 493 kts 112°
2026-04-20 17:49 21.65891 67.45023 40903 ft 493 kts 112°
2026-04-20 17:49 21.63149 67.51782 40902 ft 493 kts 112°
2026-04-20 17:50 21.60401 67.58545 40902 ft 494 kts 113°
2026-04-20 17:50 21.57643 67.65324 40903 ft 496 kts 113°
2026-04-20 17:51 21.54877 67.72115 40903 ft 496 kts 113°
2026-04-20 17:51 21.52108 67.78903 40904 ft 496 kts 113°
2026-04-20 17:52 21.49338 67.85684 40903 ft 495 kts 113°
2026-04-20 17:52 21.46572 67.92448 40901 ft 494 kts 113°
2026-04-20 17:53 21.43808 67.99196 40901 ft 494 kts 113°
2026-04-20 17:53 21.41035 68.05956 40898 ft 495 kts 113°
2026-04-20 17:54 21.38259 68.12716 40898 ft 496 kts 114°
2026-04-20 17:54 21.35468 68.19502 40901 ft 497 kts 114°
2026-04-20 17:55 21.32673 68.26290 40902 ft 498 kts 114°
2026-04-20 17:55 21.29896 68.33024 40904 ft 497 kts 114°
2026-04-20 17:56 21.27100 68.39795 40901 ft 497 kts 114°
2026-04-20 17:56 21.24303 68.46559 40897 ft 496 kts 114°
2026-04-20 17:57 21.21505 68.53316 40898 ft 496 kts 114°
2026-04-20 17:57 21.18706 68.60067 40893 ft 496 kts 114°
2026-04-20 17:58 21.15897 68.66834 40896 ft 498 kts 115°
2026-04-20 17:58 21.13080 68.73611 40896 ft 498 kts 115°
2026-04-20 17:59 21.10255 68.80396 40896 ft 498 kts 115°
2026-04-20 17:59 21.07433 68.87168 40896 ft 498 kts 115°
2026-04-20 18:00 21.04607 68.93937 40885 ft 498 kts 115°
2026-04-20 18:00 21.01777 69.00708 40883 ft 499 kts 115°
2026-04-20 18:01 20.98938 69.07493 40883 ft 500 kts 115°
2026-04-20 18:01 20.96415 69.14407 40890 ft 500 kts 109°
2026-04-20 18:02 20.94317 69.21473 40895 ft 501 kts 109°
2026-04-20 18:02 20.93242 69.25022 40895 ft 502 kts 109°
2026-04-20 18:03 20.90087 69.35456 40886 ft 502 kts 109°
2026-04-20 18:03 20.87936 69.42554 40883 ft 501 kts 109°
2026-04-20 18:04 20.85787 69.49645 40884 ft 501 kts 109°
2026-04-20 18:04 20.83633 69.56740 40885 ft 502 kts 109°
2026-04-20 18:05 20.80387 69.67408 40886 ft 504 kts 110°
2026-04-20 18:05 20.78219 69.74517 40887 ft 504 kts 110°
2026-04-20 18:06 20.76047 69.81628 40883 ft 503 kts 110°
2026-04-20 18:06 20.73876 69.88727 40880 ft 503 kts 110°
2026-04-20 18:07 20.71698 69.95835 40875 ft 504 kts 110°
2026-04-20 18:07 20.69528 70.02907 40876 ft 505 kts 110°
2026-04-20 18:08 20.67335 70.10039 40874 ft 506 kts 110°
2026-04-20 18:08 20.65136 70.17184 40871 ft 506 kts 111°
2026-04-20 18:09 20.62935 70.24320 40867 ft 506 kts 111°
2026-04-20 18:09 20.60730 70.31458 40867 ft 507 kts 111°
2026-04-20 18:10 20.58515 70.38616 40871 ft 507 kts 111°
2026-04-20 18:10 20.56302 70.45758 40864 ft 507 kts 111°
2026-04-20 18:11 20.54084 70.52905 40869 ft 507 kts 111°
2026-04-20 18:11 20.51862 70.60051 40861 ft 508 kts 111°
2026-04-20 18:12 20.49636 70.67199 40865 ft 508 kts 111°
2026-04-20 18:12 20.47408 70.74344 40859 ft 508 kts 112°
2026-04-20 18:13 20.45175 70.81492 40863 ft 507 kts 112°
2026-04-20 18:13 20.42943 70.88625 40860 ft 507 kts 112°
2026-04-20 18:14 20.40708 70.95756 40828 ft 507 kts 112°
2026-04-20 18:14 20.39594 70.99308 40375 ft 506 kts 112°
2026-04-20 18:14 20.38474 71.02872 39767 ft 507 kts 112°
2026-04-20 18:15 20.37354 71.06436 39235 ft 508 kts 112°
2026-04-20 18:15 20.36232 71.10007 38696 ft 508 kts 113°
2026-04-20 18:15 20.35107 71.13578 38072 ft 508 kts 112°
2026-04-20 18:15 20.33981 71.17148 37386 ft 509 kts 112°
2026-04-20 18:16 20.32854 71.20723 36688 ft 510 kts 112°
2026-04-20 18:16 20.31724 71.24307 35998 ft 510 kts 111°
2026-04-20 18:16 20.30591 71.27896 35308 ft 511 kts 111°
2026-04-20 18:16 20.29456 71.31485 34619 ft 512 kts 110°
2026-04-20 18:17 20.28318 71.35084 33915 ft 513 kts 110°
2026-04-20 18:17 20.27180 71.38685 33076 ft 514 kts 110°
2026-04-20 18:17 20.26033 71.42308 32174 ft 517 kts 110°
2026-04-20 18:17 20.24881 71.45937 31359 ft 518 kts 110°
2026-04-20 18:18 20.23736 71.49546 30800 ft 513 kts 110°
2026-04-20 18:18 20.22596 71.53130 30213 ft 509 kts 111°
2026-04-20 18:18 20.21137 71.56531 29593 ft 502 kts 123°
2026-04-20 18:18 20.19160 71.59492 28980 ft 494 kts 134°
2026-04-20 18:19 20.16831 71.62216 28336 ft 489 kts 134°
2026-04-20 18:19 20.14532 71.64863 27760 ft 485 kts 135°
2026-04-20 18:19 20.12247 71.67481 27186 ft 480 kts 135°
2026-04-20 18:19 20.10018 71.70046 26623 ft 476 kts 134°
2026-04-20 18:20 20.07785 71.72623 26060 ft 472 kts 134°
2026-04-20 18:20 20.05567 71.75177 25501 ft 469 kts 134°
2026-04-20 18:20 20.03363 71.77706 24947 ft 465 kts 134°
2026-04-20 18:20 20.01169 71.80226 24395 ft 462 kts 134°
2026-04-20 18:21 19.99004 71.82716 23851 ft 458 kts 134°
2026-04-20 18:21 19.96841 71.85200 23289 ft 455 kts 134°
2026-04-20 18:21 19.94702 71.87655 22690 ft 451 kts 134°
2026-04-20 18:21 19.92579 71.90090 22109 ft 447 kts 134°
2026-04-20 18:22 19.90476 71.92501 21516 ft 443 kts 134°
2026-04-20 18:22 19.88397 71.94885 20954 ft 439 kts 134°
2026-04-20 18:22 19.86328 71.97256 20384 ft 435 kts 134°
2026-04-20 18:22 19.84279 71.99602 19823 ft 431 kts 134°
2026-04-20 18:23 19.82253 72.01922 19251 ft 428 kts 134°
2026-04-20 18:23 19.80238 72.04229 18729 ft 424 kts 134°
2026-04-20 18:23 19.78238 72.06516 18185 ft 421 kts 134°
2026-04-20 18:23 19.76172 72.08688 17569 ft 415 kts 140°
2026-04-20 18:24 19.74020 72.10711 17030 ft 410 kts 139°
2026-04-20 18:24 19.71916 72.12727 16458 ft 405 kts 139°
2026-04-20 18:24 19.69833 72.14719 15939 ft 400 kts 139°
2026-04-20 18:24 19.67773 72.16671 15404 ft 395 kts 140°
2026-04-20 18:25 19.65736 72.18600 14892 ft 390 kts 139°
2026-04-20 18:25 19.63723 72.20512 14367 ft 385 kts 139°
2026-04-20 18:25 19.61741 72.22397 13842 ft 381 kts 139°
2026-04-20 18:25 19.59776 72.24262 13278 ft 377 kts 139°
2026-04-20 18:26 19.57831 72.26105 12655 ft 374 kts 139°
2026-04-20 18:26 19.55898 72.27938 12036 ft 371 kts 139°
2026-04-20 18:26 19.53985 72.29752 11405 ft 368 kts 139°
2026-04-20 18:26 19.52086 72.31552 10919 ft 363 kts 139°
2026-04-20 18:27 19.50231 72.33310 10864 ft 355 kts 139°
2026-04-20 18:27 19.48374 72.35068 10867 ft 362 kts 139°
2026-04-20 18:27 19.46488 72.36853 10869 ft 363 kts 139°
2026-04-20 18:27 19.44601 72.38640 10869 ft 364 kts 139°
2026-04-20 18:28 19.42715 72.40425 10869 ft 364 kts 139°
2026-04-20 18:28 19.40827 72.42210 10870 ft 364 kts 139°
2026-04-20 18:28 19.38932 72.44001 10869 ft 364 kts 139°
2026-04-20 18:28 19.37043 72.45787 10870 ft 364 kts 139°
2026-04-20 18:29 19.35188 72.47540 10555 ft 362 kts 138°
2026-04-20 18:29 19.33309 72.49315 10169 ft 361 kts 138°
2026-04-20 18:29 19.31596 72.50933 9857 ft 359 kts 138°
2026-04-20 18:29 19.29738 72.52687 9470 ft 358 kts 138°
2026-04-20 18:30 19.27885 72.54436 9061 ft 357 kts 138°
2026-04-20 18:30 19.26034 72.56182 8678 ft 356 kts 138°
2026-04-20 18:30 19.24185 72.57927 8283 ft 355 kts 138°
2026-04-20 18:30 19.22560 72.59877 7865 ft 354 kts 120°
2026-04-20 18:31 19.21692 72.62290 7503 ft 352 kts 99°
2026-04-20 18:31 19.21541 72.64872 7099 ft 352 kts 90°
2026-04-20 18:31 19.21528 72.67462 6730 ft 351 kts 89°
2026-04-20 18:31 19.21540 72.70041 6383 ft 350 kts 89°
2026-04-20 18:32 19.21526 72.72611 6131 ft 344 kts 89°
2026-04-20 18:32 19.21500 72.75025 5960 ft 311 kts 89°
2026-04-20 18:32 19.21484 72.77184 5863 ft 279 kts 89°
2026-04-20 18:32 19.21476 72.79210 5870 ft 274 kts 89°
2026-04-20 18:33 19.21465 72.81216 5871 ft 271 kts 89°
2026-04-20 18:33 19.21451 72.83205 5870 ft 270 kts 89°
2026-04-20 18:33 19.21438 72.85064 5871 ft 269 kts 89°
2026-04-20 18:33 19.21425 72.87019 5232 ft 268 kts 89°
2026-04-20 18:34 19.21412 72.88995 4579 ft 267 kts 88°
2026-04-20 18:34 19.21398 72.90954 3933 ft 265 kts 88°
2026-04-20 18:34 19.21384 72.92895 3288 ft 263 kts 88°
2026-04-20 18:34 19.21370 72.94825 3328 ft 266 kts 88°
2026-04-20 18:35 19.21358 72.96854 3896 ft 279 kts 88°
2026-04-20 18:35 19.21341 72.98863 3979 ft 268 kts 88°
2026-04-20 18:35 19.21324 73.00766 3994 ft 251 kts 88°
2026-04-20 18:35 19.21315 73.01973 3999 ft 246 kts 88°
2026-04-20 18:36 19.21306 73.03887 4032 ft 286 kts 88°
2026-04-20 18:36 19.21295 73.06226 4041 ft 349 kts 89°
2026-04-20 18:36 19.21259 73.08897 4061 ft 359 kts 89°
2026-04-20 18:36 19.21234 73.11532 4072 ft 353 kts 89°
2026-04-20 18:37 19.21233 73.14151 4084 ft 373 kts 86°
2026-04-20 18:37 19.21775 73.16969 4091 ft 402 kts 68°
2026-04-20 18:37 19.23080 73.19489 4036 ft 372 kts 52°
2026-04-20 18:37 19.24714 73.21444 3414 ft 343 kts 35°
2026-04-20 18:38 19.26795 73.22412 3133 ft 316 kts
2026-04-20 18:38 19.28868 73.22211 3092 ft 291 kts 338°
2026-04-20 18:38 19.30405 73.20962 3076 ft 275 kts 310°
2026-04-20 18:38 19.31430 73.19311 3035 ft 263 kts 302°
2026-04-20 18:39 19.32300 73.17653 3000 ft 253 kts 300°
2026-04-20 18:39 19.33120 73.16039 2980 ft 245 kts 300°
2026-04-20 18:39 19.33914 73.14465 2893 ft 242 kts 300°
2026-04-20 18:39 19.34693 73.12914 2896 ft 235 kts 300°
2026-04-20 18:40 19.35590 73.11522 2866 ft 226 kts 323°
2026-04-20 18:40 19.36969 73.10728 2904 ft 230 kts 337°
2026-04-20 18:40 19.38490 73.10363 2875 ft 224 kts
2026-04-20 18:40 19.39843 73.11120 2884 ft 227 kts 48°
2026-04-20 18:41 19.40384 73.12680 2886 ft 234 kts 89°
2026-04-20 18:41 19.39982 73.14354 2889 ft 237 kts 109°
2026-04-20 18:41 19.39335 73.15955 2898 ft 237 kts 112°
2026-04-20 18:41 19.38660 73.17552 2901 ft 237 kts 113°
2026-04-20 18:42 19.37616 73.18881 2890 ft 240 kts 150°
2026-04-20 18:42 19.35996 73.19240 2878 ft 242 kts 182°
2026-04-20 18:42 19.34357 73.19053 2900 ft 236 kts 188°
2026-04-20 18:42 19.32772 73.18808 2918 ft 227 kts 189°
2026-04-20 18:43 19.31232 73.18566 2911 ft 221 kts 189°
2026-04-20 18:43 19.29714 73.18328 2906 ft 220 kts 189°
2026-04-20 18:43 19.28198 73.18089 2900 ft 220 kts 189°
2026-04-20 18:43 19.26688 73.17851 2893 ft 220 kts 189°
2026-04-20 18:44 19.25178 73.17612 2894 ft 220 kts 189°
2026-04-20 18:44 19.23679 73.17374 2894 ft 211 kts 189°
2026-04-20 18:44 19.22276 73.17153 2880 ft 197 kts 189°
2026-04-20 18:44 19.20964 73.16946 2872 ft 184 kts 189°
2026-04-20 18:45 19.19752 73.16757 2874 ft 171 kts 189°
2026-04-20 18:45 19.18580 73.16573 2866 ft 168 kts 188°
2026-04-20 18:45 19.17411 73.16390 2806 ft 173 kts 189°
2026-04-20 18:45 19.16232 73.16202 2790 ft 170 kts 189°
2026-04-20 18:46 19.15057 73.16010 2801 ft 171 kts 189°
2026-04-20 18:46 19.13882 73.15817 2827 ft 171 kts 189°
2026-04-20 18:46 19.12753 73.15456 2850 ft 170 kts 211°
2026-04-20 18:46 19.11967 73.14570 2877 ft 166 kts 246°
2026-04-20 18:47 19.11630 73.13412 2858 ft 162 kts 267°
2026-04-20 18:47 19.11680 73.12240 2869 ft 160 kts 284°
2026-04-20 18:47 19.11603 73.11059 2802 ft 167 kts 255°
2026-04-20 18:47 19.11205 73.09936 2861 ft 166 kts 255°
2026-04-20 18:48 19.10894 73.08753 2860 ft 166 kts 255°
2026-04-20 18:48 19.10731 73.07554 2718 ft 163 kts 274°
2026-04-20 18:48 19.10695 73.06354 2552 ft 164 kts 265°
2026-04-20 18:48 19.10445 73.05169 2348 ft 165 kts 256°
2026-04-20 18:49 19.10156 73.04005 2146 ft 163 kts 265°
2026-04-20 18:49 19.10049 73.02828 1946 ft 162 kts 263°
2026-04-20 18:49 19.09745 73.01700 1728 ft 158 kts 252°
2026-04-20 18:49 19.09436 73.00594 1449 ft 156 kts 259°
2026-04-20 18:50 19.09223 72.99471 1053 ft 155 kts 260°
2026-04-20 18:50 19.09037 72.98380 764 ft 150 kts 265°
2026-04-20 18:50 19.08975 72.97309 564 ft 143 kts 266°
2026-04-20 18:50 19.08924 72.96259 519 ft 140 kts 268°
2026-04-20 18:51 19.08902 72.95213 588 ft 143 kts 269°
2026-04-20 18:51 19.08880 72.94151 755 ft 146 kts 269°
2026-04-20 18:51 19.08863 72.93077 1055 ft 154 kts 271°
2026-04-20 18:51 19.08883 72.91965 1324 ft 149 kts 274°
2026-04-20 18:52 19.08940 72.90816 1357 ft 159 kts 272°
2026-04-20 18:52 19.08881 72.89666 1028 ft 158 kts 270°
2026-04-20 18:52 19.08878 72.88509 568 ft 158 kts 271°
2026-04-20 18:52 19.08880 72.87362 209 ft 149 kts 270°
2026-04-20 18:53 19.08870 72.86295 36 ft 136 kts 270°
2026-04-20 18:53 19.08857 72.85583 37 ft 46 kts 269°
2026-04-20 18:53 19.08924 72.85294 39 ft 22 kts 301°
2026-04-20 18:53 19.08971 72.85252 39 ft 7 kts 336°
2026-04-20 18:54 19.08987 72.85250 39 ft 2 kts
2026-04-20 18:54 19.08994 72.85252 39 ft 1 kts 30°
2026-04-20 18:54 19.09009 72.85271 39 ft 5 kts 64°
2026-04-20 18:54 19.09019 72.85318 39 ft 11 kts 79°
2026-04-20 18:55 19.09079 72.85400 39 ft 18 kts 17°
2026-04-20 18:55 19.09151 72.85406 39 ft 0 kts 356°